TimeMST,TemperatureF,Dew PointF,Humidity,Sea Level PressureIn,VisibilityMPH,Wind Direction,Wind SpeedMPH,Gust SpeedMPH,PrecipitationIn,Events,Conditions,WindDirDegrees,DateUTC
12:34 AM,21.2,19.4,93,29.97,4.0,Calm,Calm,-,0.00,Snow,Light Snow,0,2013-02-22 07:34:00
12:42 AM,19.4,17.6,93,29.97,3.0,Calm,Calm,-,0.00,Snow,Light Snow,0,2013-02-22 07:42:00
12:45 AM,19.4,17.6,93,29.97,2.5,Calm,Calm,-,0.00,Snow,Light Snow,0,2013-02-22 07:45:00
12:51 AM,19.9,18.0,92,30.09,2.5,Calm,Calm,-,0.01,Snow,Light Snow,0,2013-02-22 07:51:00
12:58 AM,19.4,17.6,93,29.97,4.0,Calm,Calm,-,0.00,Snow,Light Snow,0,2013-02-22 07:58:00
1:51 AM,18.0,15.1,88,30.12,3.0,Calm,Calm,-,0.00,,Overcast,0,2013-02-22 08:51:00
2:51 AM,18.0,15.1,88,30.11,8.0,NE,3.5,-,0.00,,Overcast,50,2013-02-22 09:51:00
3:27 AM,19.4,17.6,93,29.97,10.0,Calm,Calm,-,N/A,,Overcast,0,2013-02-22 10:27:00
3:51 AM,19.0,17.1,92,30.11,10.0,Calm,Calm,-,N/A,,Overcast,0,2013-02-22 10:51:00
4:51 AM,19.9,17.1,89,30.11,10.0,Calm,Calm,-,N/A,,Overcast,0,2013-02-22 11:51:00
5:51 AM,19.9,17.1,89,30.11,9.0,Calm,Calm,-,N/A,,Overcast,0,2013-02-22 12:51:00
6:28 AM,19.4,17.6,93,29.99,10.0,Calm,Calm,-,N/A,,Overcast,0,2013-02-22 13:28:00
6:51 AM,21.0,18.0,88,30.13,7.0,Calm,Calm,-,N/A,,Overcast,0,2013-02-22 13:51:00
7:38 AM,21.2,19.4,93,29.99,6.0,Calm,Calm,-,0.00,Snow,Light Snow,0,2013-02-22 14:38:00
7:51 AM,21.0,19.0,92,30.13,4.0,Calm,Calm,-,0.00,Snow,Light Snow,0,2013-02-22 14:51:00
8:09 AM,21.2,19.4,93,29.99,4.0,Calm,Calm,-,0.01,Snow,Light Snow,0,2013-02-22 15:09:00
8:51 AM,21.0,19.9,96,30.13,10.0,Calm,Calm,-,0.01,,Overcast,0,2013-02-22 15:51:00
9:07 AM,21.2,19.4,93,29.99,10.0,Calm,Calm,-,N/A,,Overcast,0,2013-02-22 16:07:00
9:51 AM,21.9,19.9,92,30.13,10.0,Calm,Calm,-,N/A,,Overcast,0,2013-02-22 16:51:00
10:51 AM,24.1,21.0,88,30.14,4.0,Calm,Calm,-,0.00,Snow,Light Snow,0,2013-02-22 17:51:00
11:51 AM,25.0,21.9,88,30.13,3.0,Calm,Calm,-,0.01,Snow,Light Snow,0,2013-02-22 18:51:00
12:14 PM,26.6,23.0,86,30.00,2.5,SSE,5.8,-,0.01,Snow,Light Snow,150,2013-02-22 19:14:00
12:39 PM,26.6,23.0,86,29.99,4.0,SE,9.2,-,0.01,Snow,Light Snow,140,2013-02-22 19:39:00
12:51 PM,27.0,21.9,81,30.10,9.0,SE,11.5,-,0.01,Snow,Light Snow,140,2013-02-22 19:51:00
1:51 PM,28.0,21.9,78,30.08,10.0,SSE,9.2,-,0.00,,Overcast,150,2013-02-22 20:51:00
2:27 PM,28.4,21.2,74,29.94,10.0,SSE,10.4,-,N/A,,Overcast,150,2013-02-22 21:27:00
2:51 PM,28.0,23.0,81,30.05,3.0,SSE,11.5,-,0.01,Snow,Light Snow,160,2013-02-22 21:51:00
3:04 PM,28.4,23.0,80,29.92,2.5,SSE,11.5,-,0.00,Snow,Light Snow,160,2013-02-22 22:04:00
3:23 PM,28.4,23.0,80,29.92,1.8,SSE,11.5,-,0.00,Snow,Light Snow,160,2013-02-22 22:23:00
3:28 PM,28.4,23.0,80,29.92,2.0,South,11.5,-,0.00,Snow,Light Snow,170,2013-02-22 22:28:00
3:31 PM,28.4,23.0,80,29.92,3.0,South,12.7,-,0.00,Snow,Light Snow,170,2013-02-22 22:31:00
3:37 PM,26.6,23.0,86,29.92,4.0,SSE,9.2,-,0.00,Snow,Light Snow,160,2013-02-22 22:37:00
3:47 PM,28.4,23.0,80,29.92,2.0,SSE,11.5,-,0.00,Snow,Light Snow,150,2013-02-22 22:47:00
3:51 PM,28.0,24.1,85,30.03,2.0,SSE,10.4,-,0.01,Snow,Light Snow,150,2013-02-22 22:51:00
3:57 PM,28.4,24.8,86,29.91,1.5,SSE,8.1,-,0.00,Snow,Light Snow,150,2013-02-22 22:57:00
4:06 PM,28.4,24.8,86,29.91,1.0,SSE,10.4,-,0.00,Snow,Light Snow,150,2013-02-22 23:06:00
4:13 PM,28.4,24.8,86,29.91,0.8,SE,10.4,-,0.00,Snow,Light Snow,140,2013-02-22 23:13:00
4:20 PM,28.4,24.8,86,29.90,0.8,SE,10.4,-,0.01,Snow,Light Snow,140,2013-02-22 23:20:00
4:28 PM,28.4,24.8,86,29.90,1.2,SE,12.7,-,0.01,Snow,Light Snow,140,2013-02-22 23:28:00
4:33 PM,28.4,24.8,86,29.90,2.0,SE,8.1,-,0.01,Snow,Light Snow,140,2013-02-22 23:33:00
4:40 PM,28.4,24.8,86,29.89,6.0,SE,8.1,-,0.01,Snow,Light Snow,130,2013-02-22 23:40:00
4:51 PM,28.0,24.1,85,30.00,9.0,SE,8.1,-,0.02,,Overcast,130,2013-02-22 23:51:00
5:07 PM,28.4,24.8,86,29.88,1.8,SE,9.2,-,0.00,Snow,Light Snow,140,2013-02-23 00:07:00
5:23 PM,28.4,24.8,86,29.87,1.0,SSE,5.8,-,0.00,Snow,Light Snow,150,2013-02-23 00:23:00
5:49 PM,28.4,24.8,86,29.86,0.8,SSE,6.9,-,0.01,Snow,Light Snow,150,2013-02-23 00:49:00
5:51 PM,28.0,25.0,88,29.97,0.8,SSE,6.9,-,0.01,Snow,Light Snow,150,2013-02-23 00:51:00
6:03 PM,28.4,24.8,86,29.85,1.0,SSE,6.9,-,0.01,Snow,Light Snow,160,2013-02-23 01:03:00
6:35 PM,28.4,24.8,86,29.85,1.5,SSE,6.9,-,0.02,Snow,Light Snow,150,2013-02-23 01:35:00
6:48 PM,28.4,24.8,86,29.85,1.5,SSE,5.8,-,0.02,Snow,Light Snow,150,2013-02-23 01:48:00
6:51 PM,28.0,25.0,88,29.96,1.5,SSE,6.9,-,0.03,Snow,Light Snow,150,2013-02-23 01:51:00
7:11 PM,28.4,24.8,86,29.84,1.0,SE,6.9,-,0.01,Snow,Light Snow,140,2013-02-23 02:11:00
7:51 PM,28.0,26.1,92,29.94,0.8,SE,8.1,-,0.05,Snow,Light Snow,140,2013-02-23 02:51:00
8:01 PM,28.4,26.6,93,29.82,1.0,SE,9.2,-,0.01,Snow,Light Snow,140,2013-02-23 03:01:00
8:07 PM,28.4,26.6,93,29.82,1.2,SE,8.1,-,0.01,Snow,Light Snow,140,2013-02-23 03:07:00
8:47 PM,28.4,26.6,93,29.81,1.0,SSE,4.6,-,0.04,Snow,Light Snow,150,2013-02-23 03:47:00
8:51 PM,28.0,26.1,92,29.92,1.0,SSE,3.5,-,0.04,Snow,Light Snow,160,2013-02-23 03:51:00
8:59 PM,28.4,26.6,93,29.81,1.2,SSE,4.6,-,0.01,Snow,Light Snow,150,2013-02-23 03:59:00
9:10 PM,28.4,26.6,93,29.80,1.0,SE,9.2,-,0.02,Snow,Light Snow,140,2013-02-23 04:10:00
9:16 PM,28.4,26.6,93,29.80,0.8,SE,5.8,-,0.02,Snow,Light Snow,130,2013-02-23 04:16:00
9:26 PM,28.4,26.6,93,29.79,1.0,SE,5.8,-,0.03,Snow,Light Snow,140,2013-02-23 04:26:00
9:38 PM,28.4,26.6,93,29.78,1.5,SE,4.6,-,0.04,Snow,Light Snow,130,2013-02-23 04:38:00
9:43 PM,28.4,26.6,93,29.78,2.5,SE,4.6,-,0.04,Snow,Light Snow,130,2013-02-23 04:43:00
9:47 PM,28.4,26.6,93,29.77,3.0,SE,4.6,-,0.04,Snow,Light Snow,140,2013-02-23 04:47:00
9:51 PM,28.0,26.1,92,29.88,4.0,SE,4.6,-,0.04,Snow,Light Snow,130,2013-02-23 04:51:00
10:00 PM,28.4,26.6,93,29.77,3.0,SE,9.2,-,0.00,Snow,Light Snow,140,2013-02-23 05:00:00
10:17 PM,28.4,26.6,93,29.76,4.0,SE,10.4,-,0.00,Snow,Light Snow,140,2013-02-23 05:17:00
10:37 PM,28.4,26.6,93,29.74,1.8,SE,6.9,-,0.01,Snow,Light Snow,140,2013-02-23 05:37:00
10:51 PM,28.9,27.0,92,29.83,1.5,SE,6.9,-,0.02,Snow,Light Snow,140,2013-02-23 05:51:00
11:00 PM,28.4,26.6,93,29.73,2.0,SE,8.1,-,0.00,Snow,Light Snow,140,2013-02-23 06:00:00
11:09 PM,28.4,26.6,93,29.72,2.0,SE,9.2,-,0.00,Snow,Light Snow,140,2013-02-23 06:09:00
11:21 PM,28.4,26.6,93,29.72,3.0,SE,10.4,-,0.00,Snow,Light Snow,140,2013-02-23 06:21:00
11:31 PM,30.2,26.6,86,29.71,2.5,SE,11.5,-,0.00,Snow,Light Snow,140,2013-02-23 06:31:00
11:51 PM,30.0,27.0,88,29.77,2.5,SE,12.7,-,0.01,Snow,Light Snow,140,2013-02-23 06:51:00
11:59 PM,30.2,26.6,86,29.68,4.0,SE,11.5,-,0.00,Snow,Light Snow,140,2013-02-23 06:59:00